﻿測定場所 (Monitoring sites),日付 (Measurement date),時間 (Measurement time),線量率 最大値 (max) μGy/h,線量率 最小値 (min) μGy/h,線量率 平均値 (average) μGy/h,
大田 (Ota),2015-06-14,23:01～24:00,0.0435,0.0363,0.0399,
大田 (Ota),2015-06-14,22:01～23:00,0.0431,0.0368,0.0394,
大田 (Ota),2015-06-14,21:01～22:00,0.0447,0.0364,0.0397,
大田 (Ota),2015-06-14,20:01～21:00,0.0424,0.0365,0.0396,
大田 (Ota),2015-06-14,19:01～20:00,0.0430,0.0366,0.0396,
大田 (Ota),2015-06-14,18:01～19:00,0.0430,0.0364,0.0396,
大田 (Ota),2015-06-14,17:01～18:00,0.0427,0.0367,0.0398,
大田 (Ota),2015-06-14,16:01～17:00,0.0422,0.0362,0.0393,
大田 (Ota),2015-06-14,15:01～16:00,0.0432,0.0363,0.0397,
大田 (Ota),2015-06-14,14:01～15:00,0.0432,0.0360,0.0396,
大田 (Ota),2015-06-14,13:01～14:00,0.0446,0.0362,0.0397,
大田 (Ota),2015-06-14,12:01～13:00,0.0429,0.0364,0.0392,
大田 (Ota),2015-06-14,11:01～12:00,0.0439,0.0366,0.0398,
大田 (Ota),2015-06-14,10:01～11:00,0.0440,0.0370,0.0401,
大田 (Ota),2015-06-14,09:01～10:00,0.0477,0.0373,0.0420,
大田 (Ota),2015-06-14,08:01～09:00,0.0518,0.0419,0.0468,
大田 (Ota),2015-06-14,07:01～08:00,0.0503,0.0403,0.0452,
大田 (Ota),2015-06-14,06:01～07:00,0.0507,0.0434,0.0470,
大田 (Ota),2015-06-14,05:01～06:00,0.0503,0.0382,0.0439,
大田 (Ota),2015-06-14,04:01～05:00,0.0431,0.0372,0.0406,
大田 (Ota),2015-06-14,03:01～04:00,0.0439,0.0366,0.0406,
大田 (Ota),2015-06-14,02:01～03:00,0.0437,0.0368,0.0402,
大田 (Ota),2015-06-14,01:01～02:00,0.0444,0.0369,0.0403,
大田 (Ota),2015-06-14,00:01～01:00,0.0426,0.0370,0.0400,
大田 (Ota),2015-06-13,23:01～24:00,0.0425,0.0367,0.0393,
大田 (Ota),2015-06-13,22:01～23:00,0.0425,0.0367,0.0396,
大田 (Ota),2015-06-13,21:01～22:00,0.0424,0.0357,0.0395,
大田 (Ota),2015-06-13,20:01～21:00,0.0443,0.0366,0.0396,
大田 (Ota),2015-06-13,19:01～20:00,0.0443,0.0366,0.0398,
大田 (Ota),2015-06-13,18:01～19:00,0.0424,0.0369,0.0397,
大田 (Ota),2015-06-13,17:01～18:00,0.0433,0.0365,0.0401,
大田 (Ota),2015-06-13,16:01～17:00,0.0431,0.0367,0.0399,
大田 (Ota),2015-06-13,15:01～16:00,0.0429,0.0366,0.0400,
大田 (Ota),2015-06-13,14:01～15:00,0.0434,0.0370,0.0396,
大田 (Ota),2015-06-13,13:01～14:00,0.0433,0.0372,0.0396,
大田 (Ota),2015-06-13,12:01～13:00,0.0415,0.0363,0.0391,
大田 (Ota),2015-06-13,11:01～12:00,0.0430,0.0367,0.0395,
大田 (Ota),2015-06-13,10:01～11:00,0.0431,0.0366,0.0394,
大田 (Ota),2015-06-13,09:01～10:00,0.0435,0.0364,0.0393,
大田 (Ota),2015-06-13,08:01～09:00,0.0423,0.0364,0.0395,
大田 (Ota),2015-06-13,07:01～08:00,0.0442,0.0368,0.0394,
大田 (Ota),2015-06-13,06:01～07:00,0.0427,0.0368,0.0393,
大田 (Ota),2015-06-13,05:01～06:00,0.0435,0.0365,0.0396,
大田 (Ota),2015-06-13,04:01～05:00,0.0439,0.0366,0.0399,
大田 (Ota),2015-06-13,03:01～04:00,0.0434,0.0371,0.0401,
大田 (Ota),2015-06-13,02:01～03:00,0.0439,0.0376,0.0404,
大田 (Ota),2015-06-13,01:01～02:00,0.0423,0.0366,0.0393,
大田 (Ota),2015-06-13,00:01～01:00,0.0437,0.0366,0.0394,
大田 (Ota),2015-06-12,23:01～24:00,0.0426,0.0371,0.0398,
大田 (Ota),2015-06-12,22:01～23:00,0.0415,0.0362,0.0393,
大田 (Ota),2015-06-12,21:01～22:00,0.0418,0.0365,0.0393,
大田 (Ota),2015-06-12,20:01～21:00,0.0422,0.0364,0.0393,
大田 (Ota),2015-06-12,19:01～20:00,0.0423,0.0364,0.0392,
大田 (Ota),2015-06-12,18:01～19:00,0.0426,0.0364,0.0392,
大田 (Ota),2015-06-12,17:01～18:00,0.0418,0.0370,0.0394,
大田 (Ota),2015-06-12,16:01～17:00,0.0419,0.0365,0.0389,
大田 (Ota),2015-06-12,15:01～16:00,0.0424,0.0365,0.0397,
大田 (Ota),2015-06-12,14:01～15:00,0.0429,0.0369,0.0403,
大田 (Ota),2015-06-12,13:01～14:00,0.0471,0.0384,0.0419,
大田 (Ota),2015-06-12,12:01～13:00,0.0459,0.0384,0.0421,
大田 (Ota),2015-06-12,11:01～12:00,0.0435,0.0374,0.0408,
大田 (Ota),2015-06-12,10:01～11:00,0.0437,0.0387,0.0413,
大田 (Ota),2015-06-12,09:01～10:00,0.0507,0.0405,0.0455,
大田 (Ota),2015-06-12,08:01～09:00,0.0554,0.0456,0.0500,
大田 (Ota),2015-06-12,07:01～08:00,0.0553,0.0451,0.0506,
大田 (Ota),2015-06-12,06:01～07:00,0.0500,0.0414,0.0454,
大田 (Ota),2015-06-12,05:01～06:00,0.0507,0.0413,0.0469,
大田 (Ota),2015-06-12,04:01～05:00,0.0534,0.0453,0.0494,
大田 (Ota),2015-06-12,03:01～04:00,0.0544,0.0422,0.0489,
大田 (Ota),2015-06-12,02:01～03:00,0.0501,0.0411,0.0463,
大田 (Ota),2015-06-12,01:01～02:00,0.0526,0.0422,0.0481,
大田 (Ota),2015-06-12,00:01～01:00,0.0493,0.0420,0.0445,
大田 (Ota),2015-06-11,23:01～24:00,0.0463,0.0392,0.0426,
大田 (Ota),2015-06-11,22:01～23:00,0.0425,0.0367,0.0399,
大田 (Ota),2015-06-11,21:01～22:00,0.0425,0.0370,0.0397,
大田 (Ota),2015-06-11,20:01～21:00,0.0429,0.0365,0.0396,
大田 (Ota),2015-06-11,19:01～20:00,0.0428,0.0371,0.0396,
大田 (Ota),2015-06-11,18:01～19:00,0.0435,0.0368,0.0398,
大田 (Ota),2015-06-11,17:01～18:00,0.0428,0.0368,0.0397,
大田 (Ota),2015-06-11,16:01～17:00,0.0428,0.0370,0.0395,
大田 (Ota),2015-06-11,15:01～16:00,0.0431,0.0370,0.0399,
大田 (Ota),2015-06-11,14:01～15:00,0.0431,0.0368,0.0398,
大田 (Ota),2015-06-11,13:01～14:00,0.0433,0.0363,0.0396,
大田 (Ota),2015-06-11,12:01～13:00,0.0428,0.0366,0.0399,
大田 (Ota),2015-06-11,11:01～12:00,0.0428,0.0370,0.0396,
大田 (Ota),2015-06-11,10:01～11:00,0.0427,0.0362,0.0394,
大田 (Ota),2015-06-11,09:01～10:00,0.0419,0.0366,0.0395,
大田 (Ota),2015-06-11,08:01～09:00,0.0423,0.0361,0.0395,
大田 (Ota),2015-06-11,07:01～08:00,0.0422,0.0361,0.0393,
大田 (Ota),2015-06-11,06:01～07:00,0.0422,0.0354,0.0394,
大田 (Ota),2015-06-11,05:01～06:00,0.0443,0.0372,0.0397,
大田 (Ota),2015-06-11,04:01～05:00,0.0429,0.0362,0.0397,
大田 (Ota),2015-06-11,03:01～04:00,0.0435,0.0359,0.0394,
大田 (Ota),2015-06-11,02:01～03:00,0.0422,0.0368,0.0395,
大田 (Ota),2015-06-11,01:01～02:00,0.0422,0.0359,0.0394,
大田 (Ota),2015-06-11,00:01～01:00,0.0428,0.0359,0.0390,
大田 (Ota),2015-06-10,23:01～24:00,0.0416,0.0362,0.0392,
大田 (Ota),2015-06-10,22:01～23:00,0.0432,0.0368,0.0394,
大田 (Ota),2015-06-10,21:01～22:00,0.0425,0.0364,0.0396,
大田 (Ota),2015-06-10,20:01～21:00,0.0423,0.0371,0.0398,
大田 (Ota),2015-06-10,19:01～20:00,0.0425,0.0367,0.0393,
大田 (Ota),2015-06-10,18:01～19:00,0.0425,0.0364,0.0396,
大田 (Ota),2015-06-10,17:01～18:00,0.0418,0.0365,0.0395,
大田 (Ota),2015-06-10,16:01～17:00,0.0433,0.0367,0.0396,
大田 (Ota),2015-06-10,15:01～16:00,0.0431,0.0359,0.0394,
大田 (Ota),2015-06-10,14:01～15:00,0.0423,0.0366,0.0396,
大田 (Ota),2015-06-10,13:01～14:00,0.0425,0.0364,0.0395,
大田 (Ota),2015-06-10,12:01～13:00,0.0427,0.0356,0.0395,
大田 (Ota),2015-06-10,11:01～12:00,0.0444,0.0370,0.0397,
大田 (Ota),2015-06-10,10:01～11:00,0.0416,0.0366,0.0392,
大田 (Ota),2015-06-10,09:01～10:00,0.0427,0.0365,0.0391,
大田 (Ota),2015-06-10,08:01～09:00,0.0416,0.0366,0.0392,
大田 (Ota),2015-06-10,07:01～08:00,0.0428,0.0366,0.0394,
大田 (Ota),2015-06-10,06:01～07:00,0.0416,0.0360,0.0393,
大田 (Ota),2015-06-10,05:01～06:00,0.0432,0.0359,0.0394,
大田 (Ota),2015-06-10,04:01～05:00,0.0423,0.0365,0.0391,
大田 (Ota),2015-06-10,03:01～04:00,0.0422,0.0363,0.0395,
大田 (Ota),2015-06-10,02:01～03:00,0.0427,0.0367,0.0391,
大田 (Ota),2015-06-10,01:01～02:00,0.0426,0.0366,0.0388,
大田 (Ota),2015-06-10,00:01～01:00,0.0422,0.0365,0.0388,
大田 (Ota),2015-06-09,23:01～24:00,0.0429,0.0367,0.0389,
大田 (Ota),2015-06-09,22:01～23:00,0.0433,0.0367,0.0396,
大田 (Ota),2015-06-09,21:01～22:00,0.0447,0.0368,0.0391,
大田 (Ota),2015-06-09,20:01～21:00,0.0420,0.0355,0.0391,
大田 (Ota),2015-06-09,19:01～20:00,0.0423,0.0363,0.0390,
大田 (Ota),2015-06-09,18:01～19:00,0.0421,0.0362,0.0388,
大田 (Ota),2015-06-09,17:01～18:00,0.0422,0.0359,0.0389,
大田 (Ota),2015-06-09,16:01～17:00,0.0422,0.0364,0.0390,
大田 (Ota),2015-06-09,15:01～16:00,0.0433,0.0357,0.0393,
大田 (Ota),2015-06-09,14:01～15:00,0.0437,0.0372,0.0403,
大田 (Ota),2015-06-09,13:01～14:00,0.0457,0.0393,0.0417,
大田 (Ota),2015-06-09,12:01～13:00,0.0449,0.0376,0.0416,
大田 (Ota),2015-06-09,11:01～12:00,0.0448,0.0380,0.0410,
大田 (Ota),2015-06-09,10:01～11:00,0.0421,0.0355,0.0395,
大田 (Ota),2015-06-09,09:01～10:00,0.0426,0.0363,0.0393,
大田 (Ota),2015-06-09,08:01～09:00,0.0461,0.0377,0.0421,
大田 (Ota),2015-06-09,07:01～08:00,0.0500,0.0405,0.0451,
大田 (Ota),2015-06-09,06:01～07:00,0.0517,0.0430,0.0476,
大田 (Ota),2015-06-09,05:01～06:00,0.0506,0.0428,0.0465,
大田 (Ota),2015-06-09,04:01～05:00,0.0496,0.0403,0.0462,
大田 (Ota),2015-06-09,03:01～04:00,0.0502,0.0430,0.0465,
大田 (Ota),2015-06-09,02:01～03:00,0.0501,0.0418,0.0456,
大田 (Ota),2015-06-09,01:01～02:00,0.0476,0.0388,0.0433,
大田 (Ota),2015-06-09,00:01～01:00,0.0445,0.0380,0.0413,
大田 (Ota),2015-06-08,23:01～24:00,0.0459,0.0386,0.0415,
大田 (Ota),2015-06-08,22:01～23:00,0.0454,0.0388,0.0419,
大田 (Ota),2015-06-08,21:01～22:00,0.0435,0.0369,0.0407,
大田 (Ota),2015-06-08,20:01～21:00,0.0436,0.0363,0.0395,
大田 (Ota),2015-06-08,19:01～20:00,0.0420,0.0368,0.0392,
大田 (Ota),2015-06-08,18:01～19:00,0.0419,0.0365,0.0394,
大田 (Ota),2015-06-08,17:01～18:00,0.0428,0.0362,0.0394,
大田 (Ota),2015-06-08,16:01～17:00,0.0426,0.0367,0.0396,
大田 (Ota),2015-06-08,15:01～16:00,0.0424,0.0368,0.0394,
大田 (Ota),2015-06-08,14:01～15:00,0.0441,0.0363,0.0396,
大田 (Ota),2015-06-08,13:01～14:00,0.0424,0.0370,0.0396,
大田 (Ota),2015-06-08,12:01～13:00,0.0434,0.0370,0.0396,
大田 (Ota),2015-06-08,11:01～12:00,0.0428,0.0367,0.0395,
大田 (Ota),2015-06-08,10:01～11:00,0.0432,0.0364,0.0392,
大田 (Ota),2015-06-08,09:01～10:00,0.0419,0.0363,0.0395,
大田 (Ota),2015-06-08,08:01～09:00,0.0428,0.0369,0.0399,
大田 (Ota),2015-06-08,07:01～08:00,0.0425,0.0377,0.0401,
大田 (Ota),2015-06-08,06:01～07:00,0.0429,0.0371,0.0394,
大田 (Ota),2015-06-08,05:01～06:00,0.0420,0.0367,0.0393,
大田 (Ota),2015-06-08,04:01～05:00,0.0422,0.0364,0.0393,
大田 (Ota),2015-06-08,03:01～04:00,0.0435,0.0361,0.0391,
大田 (Ota),2015-06-08,02:01～03:00,0.0430,0.0367,0.0393,
大田 (Ota),2015-06-08,01:01～02:00,0.0428,0.0365,0.0391,
大田 (Ota),2015-06-08,00:01～01:00,0.0430,0.0364,0.0392,
